Flag for Puerto Rico Weather past 2 weeks in Caguas, Puerto Rico

Now
83 °F

Scattered clouds.


Feels Like: 89 °F
Forecast: 77 / 81 °F
Wind: 8 mph from East

Location: Luis Munoz Marin

Current Time: Aug 1, 2014 at 9:14:25 PM

Latest Report: Aug 1, 2014 at 7:56 PM


Visibility: 10 mi

Pressure: 29.99 "Hg

Humidity: 74%

Dew point: 74 °F

Location of CaguasLocation

Historic Weather in Caguas — Graph

°F

Caguas temperature yesterday

Maximum temperature yesterday: 90 °F (at 12:56 PM)
Minimum temperature yesterday: 79 °F (at 2:56 AM)
Average temperature yesterday: 83 °F

Past Weeks' High & Low Weather Summary

 TemperatureHumidityPressure
High91 °F (Aug 1, 1:56 PM)100% (Jul 29, 11:56 AM)30.12 "Hg (Jul 29, 11:56 AM)
Low79 °F (Jul 18, 2:56 AM)56% (Aug 1, 1:56 PM)29.93 "Hg (Aug 1, 2:56 PM)
Average84 °F75%30.04 "Hg
* Reported Jul 17 7:56 PM — Aug 1 7:56 PM, Caguas, Weather by CustomWeather, © 2014

Note: Actual official high and low records may vary slightly from our data, if they occured in-between our weather recording intervals... More about our weather records

Advertising

Caguas weather history for previous 24 hours

 ConditionsComfort  
Time TempWeatherWind HumidityBarometerVisibility
7:56 PM
Aug 1
83 °FScattered clouds.8 mph74%29.99 "Hg10 mi
6:56 PM84 °FPassing clouds.9 mph67%29.97 "Hg9 mi
5:56 PM85 °FPassing clouds.16 mph65%29.95 "Hg9 mi
4:56 PM88 °FPassing clouds.15 mph63%29.93 "Hg9 mi
3:56 PM89 °FPassing clouds.16 mph63%29.93 "Hg10 mi
2:56 PM90 °FPassing clouds.17 mph63%29.93 "Hg10 mi
1:56 PM91 °FScattered clouds.17 mph56%29.94 "Hg10 mi
12:56 PM89 °FScattered clouds.20 mph68%29.96 "Hg10 mi
11:56 AM88 °FScattered clouds.16 mph70%29.97 "Hg10 mi
10:56 AM87 °FBroken clouds.15 mph72%29.99 "Hg10 mi
9:56 AM86 °FPartly sunny.13 mph72%29.98 "Hg10 mi
8:56 AM85 °FScattered clouds.12 mph72%29.98 "Hg10 mi
7:56 AM82 °FScattered clouds.5 mph79%29.98 "Hg10 mi
6:56 AM80 °FPassing clouds.3 mph81%29.98 "Hg10 mi
5:56 AM79 °FPassing clouds.No wind84%29.98 "Hg10 mi
4:56 AM79 °FPassing clouds.No wind84%29.97 "Hg10 mi
3:56 AM79 °FPassing clouds.5 mph84%29.96 "Hg10 mi
2:56 AM79 °FPassing clouds.No wind84%29.97 "Hg10 mi
1:56 AM79 °FPassing clouds.7 mph84%29.98 "Hg10 mi
12:56 AM79 °FPassing clouds.7 mph90%30.00 "Hg10 mi
11:56 PM
Jul 31
81 °FPassing clouds.3 mph79%30.02 "Hg10 mi
10:56 PM81 °FPassing clouds.6 mph79%30.02 "Hg10 mi
9:56 PM81 °FPassing clouds.7 mph82%30.02 "Hg10 mi
Weather by CustomWeather, © 2014

See weather overviewHow to use our weather pages